SCP
0 0 0 0 0 0 0 0 0 0 0 0 0 0 0 0 0 0 0 0 0 0 0 0 0 0 0 0 0 0 0 0 0 0 0 0 0 0 0 0 0 0 0 0 0 0 0 0 0 0 1 0 0 0
0 0 0 0 0 0 0 0 0 0 0 0 0 0 0 0 0 0 0 0 0 0 0 0 0 0 0 0 0 0 0 0 0 0 0 0 0 0 0 0 0 0 0 0 0 0 0 0 0 1 0 0 0 0
0 0 0 0 0 0 0 0 0 0 0 0 0 0 0 0 0 0 0 0 0 0 0 0 0 0 0 0 0 0 0 0 0 0 0 0 0 0 0 0 0 0 0 0 0 0 0 0 0 0 0 0 0 0
0 0 0 0 0 0 0 0 0 0 0 0 0 0 0 0 0 0 0 0 0 0 0 0 0 0 0 0 0 0 0 0 0 0 0 0 0 0 0 0 0 0 0 0 0 0 0 0 0 0 0 0 0 0
0 0 -0 0 0 0 0 0 0 0 0 0 0 0 0 0 0 0 0 0 0 0 0 0 0 0 0 0 0 0 0 0 0 0 0 0 0 0 0 0 0 0 0 0 0 0 0 0 0 0 0 0 0 1
0 0 0 0 0 0 0 0 0 0 0 0 0 0 0 0 0 0 0 0 0 0 0 0 0 0 0 0 0 0 0 0 0 0 0 0 0 0 0 0 0 0 0 -0 0 0 0 0 0 0 0 0 0 1
0 0 0 0 0 0 0 0 0 0 0 0 0 0 0 0 0 0 0 0 0 0 0 0 0 0 0 0 0 0 0 0 0 0 0 0 0 0 0 0 0 0 0 0 -0 -0 0 0 0 -0 0 0 0 0
0 0 0 0 0 0 0 0 0 0 0 0 0 0 0 0 0 0 0 0 0 0 0 0 0 0 0 0 0 0 0 0 0 0 0 0 0 0 0 0 0 0 0 0 0 -0 0 0 0 -0 -0 -0 0 0
0 0 -0 0 0 0 0 0 0 0 0 0 0 0 0 0 0 0 0 0 0 0 0 0 0 0 0 0 0 0 0 0 0 0 0 0 0 0 0 0 0 0 0 0 0 0 0 0 0 0 0 0 0 0
0 0 -0 0 0 0 0 0 0 0 0 0 0 0 0 0 0 0 0 0 0 0 0 0 0 0 0 0 0 0 0 0 0 0 0 0 0 0 0 0 0 0 0 0 0 0 0 0 0 0 0 0 0 0
0 0 0 -0 0 0 0 0 0 0 0 0 0 0 0 0 0 0 0 0 0 0 0 0 0 0 0 0 0 0 0 0 0 0 0 0 0 0 0 0 0 0 0 0 0 0 0 0 0 0 0 0 0 0
0 0 0 0 0 0 0 0 0 0 0 0 0 0 0 0 0 0 0 0 0 0 0 0 0 0 0 0 0 0 0 0 0 0 0 0 0 0 0 0 0 0 0 0 0 0 0 0 0 0 0 0 0 0
-0 0 0 0 0 0 0 0 0 0 0 0 0 0 0 0 0 0 0 0 0 0 0 0 0 0 0 0 0 0 0 0 0 0 0 0 0 0 0 0 0 0 0 0 0 0 0 0 0 0 0 0 0 0
-0 0 0 0 0 0 0 0 0 0 0 0 0 0 0 0 0 0 0 0 0 0 0 0 0 0 0 0 0 0 0 0 0 0 0 0 0 0 0 0 0 0 0 0 0 0 0 0 0 0 0 0 0 0
-0 0 0 0 0 0 0 0 0 0 0 0 0 0 0 0 0 0 0 0 0 0 0 0 0 0 0 0 0 0 0 0 0 0 0 0 0 0 0 0 0 0 0 0 0 0 0 0 0 0 0 0 0 0
0 0 0 0 0 0 0 0 0 0 0 0 0 0 0 0 0 0 0 0 0 0 0 0 0 0 0 0 0 0 0 0 0 0 0 0 0 0 0 0 0 0 -0 0 0 -0 -0 0 0 0 0 0 0 0
0 0 0 0 0 0 0 0 0 0 0 0 0 0 0 0 0 0 0 0 0 0 0 0 0 0 0 0 0 0 0 0 0 0 0 0 0 0 0 0 0 0 -0 -0 -0 -0 0 0 0 0 0 0 0 0
0 0 0 0 0 0 0 0 0 0 0 0 0 0 0 0 0 0 0 0 0 0 0 0 0 0 0 0 0 0 0 0 0 0 0 0 0 0 0 0 0 0 0 0 -0 0 0 0 0 0 0 0 0 0
0 0 0 0 0 0 0 0 0 0 0 0 0 0 0 0 0 0 0 0 0 0 0 0 0 0 0 0 0 0 0 0 0 0 0 0 0 0 0 0 0 0 0 0 0 0 0 0 0 0 0 0 0 0
0 0 0 0 0 0 0 0 0 0 0 0 0 0 0 0 0 0 0 0 0 0 0 0 0 0 0 0 0 0 0 0 0 0 0 0 0 0 0 0 0 0 0 0 0 0 0 0 0 0 0 0 0 0
0 0 0 0 0 0 0 0 0 0 0 0 0 0 0 0 0 0 0 0 0 0 0 0 0 0 0 0 0 0 0 0 0 0 0 -0 0 0 0 0 0 0 0 0 0 0 0 0 0 0 0 0 0 0
0 0 0 0 0 0 0 0 0 0 0 0 0 0 0 0 0 0 0 0 0 0 0 0 0 0 0 0 0 0 0 0 0 0 0 0 0 0 0 0 0 0 0 0 0 0 0 0 0 0 0 0 0 0
0 0 0 0 0 0 0 0 0 0 0 0 0 0 0 0 0 0 0 0 0 0 0 0 0 0 0 0 0 0 0 0 0 0 0 0 0 0 0 0 0 0 0 0 0 0 0 0 0 0 0 0 0 0
0 0 0 0 0 0 0 0 0 0 0 0 0 0 0 0 0 0 0 0 0 0 0 0 0 0 0 0 0 0 0 0 0 0 0 0 0 0 0 0 0 0 0 0 0 0 0 0 0 0 0 0 0 0
0 0 0 0 0 0 0 0 0 0 0 0 0 0 0 0 0 0 0 0 0 0 -0 -0 -0 -0 0 0 0 0 -0 -0 -0 -0 0 0 0 0 0 0 0 0 0 0 0 0 0 0 0 0 0 0 0 0
0 0 0 0 0 0 0 0 0 0 0 0 0 0 0 0 0 0 0 0 0 0 -0 -0 -0 -0 0 0 -0 -0 -0 0 0 0 0 0 0 0 0 0 0 0 0 0 0 0 0 0 0 0 0 0 0 0
0 0 0 0 0 0 0 0 0 0 0 0 0 0 0 0 0 0 0 0 0 0 0 0 0 0 0 0 0 0 0 0 0 0 0 0 0 0 0 0 0 0 0 0 0 0 0 0 0 0 0 0 0 0
0 0 0 0 0 0 0 0 0 0 0 0 0 0 0 0 0 0 0 0 0 0 0 0 0 0 0 0 0 0 0 0 0 0 0 0 0 0 0 0 0 0 0 0 0 0 0 0 0 0 0 0 0 0
0 0 0 0 0 0 0 0 0 0 0 0 0 0 0 0 0 0 0 0 -0 -0 0 0 0 0 0 0 0 0 0 0 0 0 0 0 0 0 0 0 0 0 0 0 0 0 0 0 0 0 0 0 0 0
0 0 0 0 0 0 0 0 0 0 0 0 0 0 0 0 0 0 0 0 0 0 0 -0 -0 -0 0 0 0 0 -0 -0 0 0 0 0 0 0 0 0 0 0 0 0 0 0 0 0 0 0 0 0 0 0
0 0 0 0 0 0 0 0 0 0 0 0 0 0 0 0 0 0 0 0 0 0 0 0 -0 -0 0 0 0 0 0 0 0 0 0 0 0 0 0 0 0 0 0 0 0 0 0 0 0 0 0 0 0 0
0 0 0 0 0 0 0 0 0 0 0 0 0 0 0 0 0 0 -0 0 0 -0 -0 -0 0 0 0 0 0 0 0 0 0 0 0 0 0 0 0 0 0 0 0 0 0 0 0 0 0 0 0 0 0 0
0 0 0 0 0 0 0 0 0 0 0 0 0 0 0 0 0 0 -0 -0 -0 -0 -0 -0 0 0 0 0 0 0 0 0 0 0 0 0 0 0 0 0 0 0 0 0 0 0 0 0 0 0 0 0 0 0
Wind_Speed_500mb
25 21 22 23 21 20 18 16 16 14 10 9 13 12 11 10 9 7 6 5 5 8 19 15 14 8 5 3 3 1 2 1 2 4 5 6 6 6 5 0 4 9 9 7 4 7 14 5 12 9 13 14 11 5
22 20 18 21 22 17 19 20 17 16 18 15 13 12 15 12 8 6 4 12 16 17 17 20 26 26 30 22 4 2 3 2 3 6 2 4 4 5 4 5 4 7 5 3 10 2 3 1 13 17 9 9 12 7
22 18 20 19 19 17 17 19 18 16 17 18 18 17 15 13 10 6 6 10 12 14 25 28 23 28 45 49 34 7 4 5 4 6 7 3 3 5 6 7 4 6 6 5 7 4 6 9 12 14 6 8 7 9
23 20 17 19 18 18 14 16 19 17 16 17 20 20 17 14 14 10 9 12 13 9 7 7 3 9 12 24 41 52 12 5 12 7 4 3 3 8 3 3 5 3 10 6 10 16 13 8 10 13 4 4 6 9
21 20 17 15 18 19 19 17 18 18 17 16 18 20 18 15 14 13 14 10 9 9 7 17 28 6 11 20 28 46 45 11 5 3 2 2 5 6 2 2 6 10 4 5 1 1 6 9 22 6 10 9 14 18
22 20 19 17 14 17 23 23 19 18 17 17 16 18 18 15 11 7 3 3 5 4 6 7 8 2 5 9 27 36 42 25 5 2 2 4 4 3 4 5 10 3 17 28 10 17 10 7 8 2 8 7 13 17
18 18 20 20 17 17 24 22 21 20 17 17 16 18 16 14 11 7 2 2 7 3 3 11 11 2 5 17 18 19 26 13 9 6 6 7 7 10 4 5 1 25 14 7 19 9 2 9 8 20 18 16 17 19
17 19 20 19 20 23 23 22 23 20 19 17 16 16 12 13 10 9 13 11 7 6 5 5 7 4 8 7 10 14 15 18 11 4 6 6 7 4 6 3 15 14 9 4 10 7 11 13 5 8 5 2 12 30
14 13 12 12 19 24 22 23 20 19 18 15 10 8 11 8 7 9 9 8 11 10 5 4 4 5 2 5 9 10 12 8 8 7 7 12 5 7 1 6 15 12 8 17 10 10 11 6 3 5 11 12 14 28
11 12 8 11 16 14 12 12 14 16 11 3 11 8 8 13 13 16 7 8 9 8 9 7 6 6 2 4 5 10 5 6 6 5 9 6 4 3 2 9 15 12 9 11 14 9 12 12 20 20 21 23 23 35
9 6 6 10 17 12 14 15 13 7 6 9 8 5 12 19 12 8 5 6 9 8 13 10 12 4 2 2 4 3 5 5 7 6 6 5 3 5 0 3 7 11 17 20 20 19 18 18 22 26 33 39 41 41
3 7 10 10 13 12 9 11 8 3 6 5 6 9 15 10 6 6 6 5 7 5 9 7 6 13 5 3 3 4 5 4 5 9 6 5 5 8 11 19 19 18 20 21 21 23 23 30 33 38 41 43 41 41
5 6 6 10 11 12 9 12 6 7 5 7 5 7 7 8 5 9 12 7 5 7 7 4 3 6 6 6 5 4 7 4 13 6 4 3 13 13 15 16 16 18 22 24 29 34 38 41 40 40 41 40 35 32
5 4 11 16 10 12 10 9 5 8 4 2 4 3 5 6 8 6 5 1 2 2 4 7 5 6 5 7 3 5 5 7 6 8 4 8 22 21 25 24 28 29 31 34 36 38 40 42 44 40 40 35 33 38
7 9 7 8 10 8 9 6 11 10 2 3 1 5 8 5 9 8 8 5 2 7 6 4 4 4 4 5 2 6 6 5 3 1 5 25 30 31 28 29 31 32 33 36 37 40 44 43 38 42 41 38 35 34
10 6 6 9 10 6 6 6 14 5 1 3 6 6 6 5 4 4 5 4 5 7 2 3 4 5 4 2 5 4 7 4 4 2 15 43 34 32 32 30 29 29 31 34 34 33 34 37 35 37 34 32 30 27
6 3 8 9 12 9 4 12 8 3 3 3 5 10 9 12 12 6 7 8 12 2 3 2 3 5 0 4 5 3 4 4 8 15 34 38 34 35 34 31 25 25 28 30 32 31 31 32 30 26 26 26 21 19
3 4 7 11 4 12 11 3 1 3 3 4 3 8 12 12 10 2 4 12 4 1 3 4 6 6 4 4 4 5 8 17 24 27 35 41 42 39 36 32 27 24 30 33 31 29 26 23 20 20 18 17 15 16
4 4 8 9 11 5 3 1 1 3 5 7 13 14 6 2 10 10 12 16 13 11 8 9 5 1 3 5 8 18 26 31 38 40 41 40 37 32 27 28 30 31 32 30 25 22 18 14 14 13 13 13 12 13
4 6 18 9 8 3 2 0 1 3 4 9 11 13 5 5 14 14 23 16 12 7 9 6 4 3 4 7 12 27 33 41 49 47 38 31 28 30 36 36 36 34 30 28 22 15 11 10 13 14 13 13 13 15
14 7 3 6 5 3 1 2 3 3 5 6 8 9 6 10 12 17 15 12 10 8 6 7 7 6 12 17 20 28 45 40 44 46 50 47 36 28 34 36 34 31 25 21 16 16 14 15 15 15 13 13 16 18
7 7 7 6 5 6 5 2 2 5 3 4 6 8 8 9 10 13 11 20 9 12 6 5 7 20 34 38 35 34 31 26 30 38 35 40 44 40 37 32 26 20 15 13 13 13 13 13 14 16 17 18 19 18
7 9 7 6 5 3 2 4 4 5 3 5 7 4 4 3 5 8 10 11 9 20 12 12 21 33 40 32 31 32 29 36 40 36 34 36 36 33 28 21 15 10 11 16 16 14 13 13 16 16 16 15 13 10
8 8 5 4 3 4 2 4 6 4 3 4 5 6 7 5 7 10 6 8 20 28 43 50 55 58 57 52 47 46 41 34 39 43 39 33 32 28 22 18 16 15 13 11 11 10 9 8 6 5 4 4 7 11
3 2 3 6 3 2 4 5 2 2 4 5 3 5 3 4 5 5 4 5 25 28 37 38 46 48 51 44 34 30 30 34 33 35 31 22 21 24 19 14 11 8 6 7 5 4 2 1 1 4 8 9 12 16
3 1 2 6 2 1 4 4 2 3 3 8 9 5 6 6 6 5 4 19 23 28 33 34 38 40 39 35 31 25 22 21 18 24 27 24 19 11 9 7 4 3 5 7 4 3 2 5 7 8 7 8 11 17
5 4 4 5 4 3 4 5 5 6 2 4 2 4 4 7 5 4 22 25 32 31 30 24 20 20 23 23 20 17 16 19 22 27 26 18 14 12 11 9 9 10 10 11 10 7 4 3 2 5 9 15 21 27
3 4 3 9 6 8 0 4 6 8 6 7 4 8 5 5 4 13 19 31 34 32 23 18 20 25 29 31 31 29 29 30 32 23 21 17 14 14 14 15 14 12 10 6 3 4 7 11 14 17 22 27 31 31
4 4 0 7 7 9 10 10 9 8 10 6 5 4 5 6 19 32 37 37 32 26 27 28 31 30 31 28 26 24 23 20 16 13 9 6 3 6 7 6 6 8 10 12 14 16 20 24 27 27 25 26 27 27
6 5 6 9 8 8 9 9 4 8 12 14 13 21 24 26 34 40 42 35 34 31 26 24 24 23 20 17 14 11 7 6 5 4 5 6 7 7 8 11 14 17 20 20 19 19 17 17 16 20 23 20 21 21
7 8 8 7 5 5 14 26 20 12 11 14 25 28 28 28 29 28 30 30 28 26 24 22 19 17 15 12 10 8 6 8 7 6 6 4 5 6 7 5 5 6 6 7 9 11 14 15 16 15 16 19 21 27
15 9 8 5 5 11 17 19 21 22 22 26 24 25 28 19 10 11 22 22 22 21 15 13 13 13 14 14 11 7 3 11 6 6 6 10 10 12 16 14 10 7 8 10 12 15 17 20 23 24 27 29 32 36
13 16 16 10 8 6 8 8 8 8 10 10 12 16 10 6 7 10 23 19 17 15 11 11 13 10 13 16 11 6 10 12 6 1 4 6 7 6 3 3 4 7 9 11 14 18 23 28 32 34 35 33 36 41
Wind_Direction_500mb
316 325 323 317 323 327 315 299 284 276 285 281 269 277 291 308 339 359 249 224 230 266 271 247 232 204 172 209 203 18 266 102 56 137 186 165 192 188 238 202 199 213 195 204 170 229 268 74 132 221 358 355 17 338
311 313 327 323 309 312 320 309 289 272 266 276 278 273 287 293 312 352 250 246 261 268 267 273 261 254 241 229 233 245 305 231 173 104 161 121 153 171 175 218 186 243 242 274 233 255 127 259 274 303 312 357 13 6
296 310 324 331 330 315 308 315 306 290 268 259 266 275 277 282 290 293 280 271 290 285 290 274 270 251 236 229 214 247 251 186 160 137 134 113 188 176 192 220 244 216 177 254 309 74 289 287 269 268 300 351 28 86
293 286 305 324 325 333 311 295 307 303 286 264 260 266 272 273 285 283 284 282 280 269 286 278 251 232 218 211 225 218 212 161 145 129 117 153 189 215 199 23 259 6 167 221 253 282 308 47 340 273 294 80 88 118
283 284 283 301 306 317 332 330 302 294 289 272 259 260 262 263 274 283 288 284 261 213 295 290 301 242 229 232 205 199 205 207 189 149 161 157 137 177 152 266 237 187 244 236 336 102 276 295 334 293 206 171 130 97
271 285 276 283 297 296 312 317 318 307 290 283 267 259 254 256 267 284 281 245 176 220 314 304 312 94 316 196 189 194 200 209 240 216 152 193 202 199 199 244 189 238 284 249 271 335 331 342 8 171 183 174 143 132
275 287 284 268 283 294 298 305 308 307 298 289 268 254 248 253 248 222 171 147 164 317 288 298 314 110 73 131 145 171 186 191 209 219 206 170 181 192 220 250 61 314 320 243 277 287 96 72 94 102 118 125 141 159
276 289 285 276 267 290 295 298 305 297 297 290 268 248 238 237 239 226 221 223 218 311 263 278 281 286 165 157 123 150 155 188 208 215 153 173 156 224 251 102 330 321 291 236 16 282 278 275 258 152 143 106 127 146
268 294 308 299 293 293 291 288 292 297 297 287 238 210 198 183 177 178 194 205 213 236 285 232 274 123 32 137 127 147 159 165 180 211 184 165 163 222 246 325 308 334 302 282 311 63 41 37 123 181 237 214 175 165
286 273 283 326 329 313 320 310 299 298 295 213 158 156 166 163 159 158 161 180 199 221 226 250 219 248 342 155 134 138 181 137 181 151 140 219 199 143 318 307 319 335 349 10 25 72 61 81 68 80 103 116 134 141
256 230 264 319 339 306 297 303 305 316 153 149 156 149 149 146 151 178 190 206 178 224 206 234 222 273 240 266 119 66 137 147 200 147 222 172 213 134 202 65 58 67 63 66 69 68 67 79 91 104 111 111 115 123
229 272 285 311 330 322 287 308 318 168 161 167 165 125 149 173 165 193 211 181 218 246 196 205 224 210 240 181 143 145 151 193 181 134 193 204 118 130 120 107 94 88 84 83 80 80 92 101 103 112 115 114 113 112
263 305 330 320 314 320 308 316 289 191 163 132 155 160 174 172 168 213 184 188 218 201 197 192 203 193 192 181 112 175 181 126 132 184 206 112 134 146 130 120 103 96 93 88 88 95 99 102 105 105 105 107 109 108
268 317 304 302 316 319 291 301 224 178 153 161 193 174 242 189 229 201 186 116 329 255 257 266 230 206 163 174 112 190 87 152 173 196 193 142 151 138 124 114 110 101 94 93 94 95 95 96 95 99 102 107 110 108
275 316 318 331 321 308 301 284 176 171 171 206 161 238 220 288 272 269 281 307 325 288 295 169 163 215 145 144 202 120 158 189 241 130 92 145 144 133 125 124 118 111 105 98 95 94 98 97 102 101 100 102 101 101
273 300 330 329 327 322 311 173 163 176 206 213 239 272 284 273 299 10 39 58 8 340 195 196 148 172 111 139 159 119 167 175 119 75 137 151 141 139 134 129 123 116 109 106 102 103 104 104 103 99 99 95 88 81
210 305 314 310 317 318 158 146 160 249 230 219 259 284 281 277 261 298 356 360 352 212 219 223 107 42 116 126 128 34 68 70 123 136 151 154 149 145 139 134 128 127 118 117 116 113 105 99 97 97 94 84 74 58
257 309 327 323 340 125 126 107 35 331 303 284 290 266 292 273 297 75 359 360 31 13 331 68 113 52 46 98 97 96 94 115 131 132 135 141 142 139 137 131 128 131 129 118 114 109 104 104 96 85 74 60 35 34
247 299 314 121 113 92 93 184 102 290 273 266 264 318 316 358 69 70 61 82 74 87 88 58 70 35 93 39 91 115 134 130 131 129 134 142 144 142 142 140 134 132 126 122 118 111 102 86 71 62 51 41 34 43
257 153 138 119 45 46 62 116 297 303 280 339 336 358 359 25 82 65 66 53 66 58 58 48 58 62 60 60 129 144 152 150 137 124 118 126 137 144 143 141 139 136 132 126 117 105 91 82 78 68 57 52 55 68
97 108 65 27 35 16 237 266 251 285 354 336 348 7 14 61 67 63 52 27 66 39 65 41 43 76 109 130 135 145 149 152 149 144 140 138 128 147 145 142 137 134 130 120 110 104 92 86 77 72 66 78 96 93
55 34 17 27 8 352 327 348 318 349 359 18 33 29 19 16 27 32 48 44 54 32 54 97 104 119 127 117 121 131 139 150 146 145 143 140 143 147 145 136 133 125 115 101 98 101 100 93 89 88 91 99 100 92
19 17 10 11 349 323 346 5 359 21 69 25 13 46 68 323 74 56 70 37 53 48 109 127 128 117 115 113 119 117 125 133 130 130 136 141 138 138 134 125 103 102 117 120 113 111 117 113 105 101 96 94 87 74
346 342 334 321 275 289 48 22 25 34 93 63 25 3 328 60 67 66 75 39 79 99 99 102 107 107 106 108 108 109 113 119 124 127 129 133 136 136 136 132 125 123 121 120 109 105 115 130 126 101 68 27 353 336
323 240 293 288 234 251 77 345 318 266 87 63 46 238 174 75 73 70 68 79 111 119 121 118 115 110 106 103 103 116 138 140 137 128 124 125 135 133 131 134 134 138 123 129 83 114 104 116 306 313 312 303 322 329
305 263 195 336 10 72 142 233 216 93 156 199 223 121 92 69 69 74 92 142 136 140 138 128 121 118 117 120 126 136 145 145 149 139 124 115 114 119 131 143 145 189 190 191 181 190 276 288 306 316 314 316 319 325
339 5 326 336 343 34 74 59 218 227 319 65 53 68 105 95 92 111 138 136 138 133 130 125 120 120 119 117 116 121 136 150 154 148 137 118 97 93 99 118 129 126 123 122 122 115 92 62 358 326 316 312 312 313
293 299 317 342 77 52 345 308 18 31 34 27 70 35 52 55 109 141 141 137 138 134 128 118 113 117 115 112 105 101 107 118 132 132 124 117 104 99 95 97 100 106 114 131 181 255 282 288 293 300 309 314 319 318
206 181 55 43 57 47 32 21 18 27 4 25 82 98 101 80 137 142 139 139 136 136 128 123 121 122 123 118 115 112 110 114 115 131 144 161 194 239 252 253 250 254 262 275 291 297 303 301 291 288 296 306 314 317
76 73 79 44 41 12 354 345 29 63 70 89 98 106 94 108 132 139 142 145 146 146 137 132 133 135 139 135 131 127 129 164 181 213 263 257 275 272 260 258 259 264 272 280 280 286 292 297 298 299 304 305 311 318
91 82 71 62 63 39 58 78 88 79 66 86 121 117 116 115 121 138 149 152 158 156 152 152 151 151 147 137 143 152 134 145 127 113 103 58 346 302 269 238 161 111 91 60 38 27 17 360 350 337 325 319 318 318
86 72 106 97 82 97 95 69 73 83 86 93 100 111 118 106 93 153 165 164 163 163 176 195 207 209 197 180 172 174 174 165 123 92 66 33 61 96 112 106 91 62 31 9 354 349 343 341 336 330 322 317 317 317
87 88 92 91 91 84 45 70 69 76 65 79 95 115 110 96 134 160 170 175 180 194 215 202 180 169 175 176 163 177 164 166 164 116 42 40 64 79 93 34 354 346 339 335 330 323 321 321 319 317 318 314 309 313
Wind_Speed_850mb
25 21 22 23 21 20 18 16 16 14 10 9 13 12 11 10 9 7 6 5 5 8 19 15 14 8 5 3 3 1 2 1 2 4 5 6 6 6 5 0 4 9 9 7 4 7 14 5 12 9 13 14 11 5
22 20 18 21 22 17 19 20 17 16 18 15 13 12 15 12 8 6 4 12 16 17 17 20 26 26 30 22 4 2 3 2 3 6 2 4 4 5 4 5 4 7 5 3 10 2 3 1 13 17 9 9 12 7
22 18 20 19 19 17 17 19 18 16 17 18 18 17 15 13 10 6 6 10 12 14 25 28 23 28 45 49 34 7 4 5 4 6 7 3 3 5 6 7 4 6 6 5 7 4 6 9 12 14 6 8 7 9
23 20 17 19 18 18 14 16 19 17 16 17 20 20 17 14 14 10 9 12 13 9 7 7 3 9 12 24 41 52 12 5 12 7 4 3 3 8 3 3 5 3 10 6 10 16 13 8 10 13 4 4 6 9
21 20 17 15 18 19 19 17 18 18 17 16 18 20 18 15 14 13 14 10 9 9 7 17 28 6 11 20 28 46 45 11 5 3 2 2 5 6 2 2 6 10 4 5 1 1 6 9 22 6 10 9 14 18
22 20 19 17 14 17 23 23 19 18 17 17 16 18 18 15 11 7 3 3 5 4 6 7 8 2 5 9 27 36 42 25 5 2 2 4 4 3 4 5 10 3 17 28 10 17 10 7 8 2 8 7 13 17
18 18 20 20 17 17 24 22 21 20 17 17 16 18 16 14 11 7 2 2 7 3 3 11 11 2 5 17 18 19 26 13 9 6 6 7 7 10 4 5 1 25 14 7 19 9 2 9 8 20 18 16 17 19
17 19 20 19 20 23 23 22 23 20 19 17 16 16 12 13 10 9 13 11 7 6 5 5 7 4 8 7 10 14 15 18 11 4 6 6 7 4 6 3 15 14 9 4 10 7 11 13 5 8 5 2 12 30
14 13 12 12 19 24 22 23 20 19 18 15 10 8 11 8 7 9 9 8 11 10 5 4 4 5 2 5 9 10 12 8 8 7 7 12 5 7 1 6 15 12 8 17 10 10 11 6 3 5 11 12 14 28
11 12 8 11 16 14 12 12 14 16 11 3 11 8 8 13 13 16 7 8 9 8 9 7 6 6 2 4 5 10 5 6 6 5 9 6 4 3 2 9 15 12 9 11 14 9 12 12 20 20 21 23 23 35
9 6 6 10 17 12 14 15 13 7 6 9 8 5 12 19 12 8 5 6 9 8 13 10 12 4 2 2 4 3 5 5 7 6 6 5 3 5 0 3 7 11 17 20 20 19 18 18 22 26 33 39 41 41
3 7 10 10 13 12 9 11 8 3 6 5 6 9 15 10 6 6 6 5 7 5 9 7 6 13 5 3 3 4 5 4 5 9 6 5 5 8 11 19 19 18 20 21 21 23 23 30 33 38 41 43 41 41
5 6 6 10 11 12 9 12 6 7 5 7 5 7 7 8 5 9 12 7 5 7 7 4 3 6 6 6 5 4 7 4 13 6 4 3 13 13 15 16 16 18 22 24 29 34 38 41 40 40 41 40 35 32
5 4 11 16 10 12 10 9 5 8 4 2 4 3 5 6 8 6 5 1 2 2 4 7 5 6 5 7 3 5 5 7 6 8 4 8 22 21 25 24 28 29 31 34 36 38 40 42 44 40 40 35 33 38
7 9 7 8 10 8 9 6 11 10 2 3 1 5 8 5 9 8 8 5 2 7 6 4 4 4 4 5 2 6 6 5 3 1 5 25 30 31 28 29 31 32 33 36 37 40 44 43 38 42 41 38 35 34
10 6 6 9 10 6 6 6 14 5 1 3 6 6 6 5 4 4 5 4 5 7 2 3 4 5 4 2 5 4 7 4 4 2 15 43 34 32 32 30 29 29 31 34 34 33 34 37 35 37 34 32 30 27
6 3 8 9 12 9 4 12 8 3 3 3 5 10 9 12 12 6 7 8 12 2 3 2 3 5 0 4 5 3 4 4 8 15 34 38 34 35 34 31 25 25 28 30 32 31 31 32 30 26 26 26 21 19
3 4 7 11 4 12 11 3 1 3 3 4 3 8 12 12 10 2 4 12 4 1 3 4 6 6 4 4 4 5 8 17 24 27 35 41 42 39 36 32 27 24 30 33 31 29 26 23 20 20 18 17 15 16
4 4 8 9 11 5 3 1 1 3 5 7 13 14 6 2 10 10 12 16 13 11 8 9 5 1 3 5 8 18 26 31 38 40 41 40 37 32 27 28 30 31 32 30 25 22 18 14 14 13 13 13 12 13
4 6 18 9 8 3 2 0 1 3 4 9 11 13 5 5 14 14 23 16 12 7 9 6 4 3 4 7 12 27 33 41 49 47 38 31 28 30 36 36 36 34 30 28 22 15 11 10 13 14 13 13 13 15
14 7 3 6 5 3 1 2 3 3 5 6 8 9 6 10 12 17 15 12 10 8 6 7 7 6 12 17 20 28 45 40 44 46 50 47 36 28 34 36 34 31 25 21 16 16 14 15 15 15 13 13 16 18
7 7 7 6 5 6 5 2 2 5 3 4 6 8 8 9 10 13 11 20 9 12 6 5 7 20 34 38 35 34 31 26 30 38 35 40 44 40 37 32 26 20 15 13 13 13 13 13 14 16 17 18 19 18
7 9 7 6 5 3 2 4 4 5 3 5 7 4 4 3 5 8 10 11 9 20 12 12 21 33 40 32 31 32 29 36 40 36 34 36 36 33 28 21 15 10 11 16 16 14 13 13 16 16 16 15 13 10
8 8 5 4 3 4 2 4 6 4 3 4 5 6 7 5 7 10 6 8 20 28 43 50 55 58 57 52 47 46 41 34 39 43 39 33 32 28 22 18 16 15 13 11 11 10 9 8 6 5 4 4 7 11
3 2 3 6 3 2 4 5 2 2 4 5 3 5 3 4 5 5 4 5 25 28 37 38 46 48 51 44 34 30 30 34 33 35 31 22 21 24 19 14 11 8 6 7 5 4 2 1 1 4 8 9 12 16
3 1 2 6 2 1 4 4 2 3 3 8 9 5 6 6 6 5 4 19 23 28 33 34 38 40 39 35 31 25 22 21 18 24 27 24 19 11 9 7 4 3 5 7 4 3 2 5 7 8 7 8 11 17
5 4 4 5 4 3 4 5 5 6 2 4 2 4 4 7 5 4 22 25 32 31 30 24 20 20 23 23 20 17 16 19 22 27 26 18 14 12 11 9 9 10 10 11 10 7 4 3 2 5 9 15 21 27
3 4 3 9 6 8 0 4 6 8 6 7 4 8 5 5 4 13 19 31 34 32 23 18 20 25 29 31 31 29 29 30 32 23 21 17 14 14 14 15 14 12 10 6 3 4 7 11 14 17 22 27 31 31
4 4 0 7 7 9 10 10 9 8 10 6 5 4 5 6 19 32 37 37 32 26 27 28 31 30 31 28 26 24 23 20 16 13 9 6 3 6 7 6 6 8 10 12 14 16 20 24 27 27 25 26 27 27
6 5 6 9 8 8 9 9 4 8 12 14 13 21 24 26 34 40 42 35 34 31 26 24 24 23 20 17 14 11 7 6 5 4 5 6 7 7 8 11 14 17 20 20 19 19 17 17 16 20 23 20 21 21
7 8 8 7 5 5 14 26 20 12 11 14 25 28 28 28 29 28 30 30 28 26 24 22 19 17 15 12 10 8 6 8 7 6 6 4 5 6 7 5 5 6 6 7 9 11 14 15 16 15 16 19 21 27
15 9 8 5 5 11 17 19 21 22 22 26 24 25 28 19 10 11 22 22 22 21 15 13 13 13 14 14 11 7 3 11 6 6 6 10 10 12 16 14 10 7 8 10 12 15 17 20 23 24 27 29 32 36
13 16 16 10 8 6 8 8 8 8 10 10 12 16 10 6 7 10 23 19 17 15 11 11 13 10 13 16 11 6 10 12 6 1 4 6 7 6 3 3 4 7 9 11 14 18 23 28 32 34 35 33 36 41
Wind_Direction_850mb
316 325 323 317 323 327 315 299 284 276 285 281 269 277 291 308 339 359 249 224 230 266 271 247 232 204 172 209 203 18 266 102 56 137 186 165 192 188 238 202 199 213 195 204 170 229 268 74 132 221 358 355 17 338
311 313 327 323 309 312 320 309 289 272 266 276 278 273 287 293 312 352 250 246 261 268 267 273 261 254 241 229 233 245 305 231 173 104 161 121 153 171 175 218 186 243 242 274 233 255 127 259 274 303 312 357 13 6
296 310 324 331 330 315 308 315 306 290 268 259 266 275 277 282 290 293 280 271 290 285 290 274 270 251 236 229 214 247 251 186 160 137 134 113 188 176 192 220 244 216 177 254 309 74 289 287 269 268 300 351 28 86
293 286 305 324 325 333 311 295 307 303 286 264 260 266 272 273 285 283 284 282 280 269 286 278 251 232 218 211 225 218 212 161 145 129 117 153 189 215 199 23 259 6 167 221 253 282 308 47 340 273 294 80 88 118
283 284 283 301 306 317 332 330 302 294 289 272 259 260 262 263 274 283 288 284 261 213 295 290 301 242 229 232 205 199 205 207 189 149 161 157 137 177 152 266 237 187 244 236 336 102 276 295 334 293 206 171 130 97
271 285 276 283 297 296 312 317 318 307 290 283 267 259 254 256 267 284 281 245 176 220 314 304 312 94 316 196 189 194 200 209 240 216 152 193 202 199 199 244 189 238 284 249 271 335 331 342 8 171 183 174 143 132
275 287 284 268 283 294 298 305 308 307 298 289 268 254 248 253 248 222 171 147 164 317 288 298 314 110 73 131 145 171 186 191 209 219 206 170 181 192 220 250 61 314 320 243 277 287 96 72 94 102 118 125 141 159
276 289 285 276 267 290 295 298 305 297 297 290 268 248 238 237 239 226 221 223 218 311 263 278 281 286 165 157 123 150 155 188 208 215 153 173 156 224 251 102 330 321 291 236 16 282 278 275 258 152 143 106 127 146
268 294 308 299 293 293 291 288 292 297 297 287 238 210 198 183 177 178 194 205 213 236 285 232 274 123 32 137 127 147 159 165 180 211 184 165 163 222 246 325 308 334 302 282 311 63 41 37 123 181 237 214 175 165
286 273 283 326 329 313 320 310 299 298 295 213 158 156 166 163 159 158 161 180 199 221 226 250 219 248 342 155 134 138 181 137 181 151 140 219 199 143 318 307 319 335 349 10 25 72 61 81 68 80 103 116 134 141
256 230 264 319 339 306 297 303 305 316 153 149 156 149 149 146 151 178 190 206 178 224 206 234 222 273 240 266 119 66 137 147 200 147 222 172 213 134 202 65 58 67 63 66 69 68 67 79 91 104 111 111 115 123
229 272 285 311 330 322 287 308 318 168 161 167 165 125 149 173 165 193 211 181 218 246 196 205 224 210 240 181 143 145 151 193 181 134 193 204 118 130 120 107 94 88 84 83 80 80 92 101 103 112 115 114 113 112
263 305 330 320 314 320 308 316 289 191 163 132 155 160 174 172 168 213 184 188 218 201 197 192 203 193 192 181 112 175 181 126 132 184 206 112 134 146 130 120 103 96 93 88 88 95 99 102 105 105 105 107 109 108
268 317 304 302 316 319 291 301 224 178 153 161 193 174 242 189 229 201 186 116 329 255 257 266 230 206 163 174 112 190 87 152 173 196 193 142 151 138 124 114 110 101 94 93 94 95 95 96 95 99 102 107 110 108
275 316 318 331 321 308 301 284 176 171 171 206 161 238 220 288 272 269 281 307 325 288 295 169 163 215 145 144 202 120 158 189 241 130 92 145 144 133 125 124 118 111 105 98 95 94 98 97 102 101 100 102 101 101
273 300 330 329 327 322 311 173 163 176 206 213 239 272 284 273 299 10 39 58 8 340 195 196 148 172 111 139 159 119 167 175 119 75 137 151 141 139 134 129 123 116 109 106 102 103 104 104 103 99 99 95 88 81
210 305 314 310 317 318 158 146 160 249 230 219 259 284 281 277 261 298 356 360 352 212 219 223 107 42 116 126 128 34 68 70 123 136 151 154 149 145 139 134 128 127 118 117 116 113 105 99 97 97 94 84 74 58
257 309 327 323 340 125 126 107 35 331 303 284 290 266 292 273 297 75 359 360 31 13 331 68 113 52 46 98 97 96 94 115 131 132 135 141 142 139 137 131 128 131 129 118 114 109 104 104 96 85 74 60 35 34
247 299 314 121 113 92 93 184 102 290 273 266 264 318 316 358 69 70 61 82 74 87 88 58 70 35 93 39 91 115 134 130 131 129 134 142 144 142 142 140 134 132 126 122 118 111 102 86 71 62 51 41 34 43
257 153 138 119 45 46 62 116 297 303 280 339 336 358 359 25 82 65 66 53 66 58 58 48 58 62 60 60 129 144 152 150 137 124 118 126 137 144 143 141 139 136 132 126 117 105 91 82 78 68 57 52 55 68
97 108 65 27 35 16 237 266 251 285 354 336 348 7 14 61 67 63 52 27 66 39 65 41 43 76 109 130 135 145 149 152 149 144 140 138 128 147 145 142 137 134 130 120 110 104 92 86 77 72 66 78 96 93
55 34 17 27 8 352 327 348 318 349 359 18 33 29 19 16 27 32 48 44 54 32 54 97 104 119 127 117 121 131 139 150 146 145 143 140 143 147 145 136 133 125 115 101 98 101 100 93 89 88 91 99 100 92
19 17 10 11 349 323 346 5 359 21 69 25 13 46 68 323 74 56 70 37 53 48 109 127 128 117 115 113 119 117 125 133 130 130 136 141 138 138 134 125 103 102 117 120 113 111 117 113 105 101 96 94 87 74
346 342 334 321 275 289 48 22 25 34 93 63 25 3 328 60 67 66 75 39 79 99 99 102 107 107 106 108 108 109 113 119 124 127 129 133 136 136 136 132 125 123 121 120 109 105 115 130 126 101 68 27 353 336
323 240 293 288 234 251 77 345 318 266 87 63 46 238 174 75 73 70 68 79 111 119 121 118 115 110 106 103 103 116 138 140 137 128 124 125 135 133 131 134 134 138 123 129 83 114 104 116 306 313 312 303 322 329
305 263 195 336 10 72 142 233 216 93 156 199 223 121 92 69 69 74 92 142 136 140 138 128 121 118 117 120 126 136 145 145 149 139 124 115 114 119 131 143 145 189 190 191 181 190 276 288 306 316 314 316 319 325
339 5 326 336 343 34 74 59 218 227 319 65 53 68 105 95 92 111 138 136 138 133 130 125 120 120 119 117 116 121 136 150 154 148 137 118 97 93 99 118 129 126 123 122 122 115 92 62 358 326 316 312 312 313
293 299 317 342 77 52 345 308 18 31 34 27 70 35 52 55 109 141 141 137 138 134 128 118 113 117 115 112 105 101 107 118 132 132 124 117 104 99 95 97 100 106 114 131 181 255 282 288 293 300 309 314 319 318
206 181 55 43 57 47 32 21 18 27 4 25 82 98 101 80 137 142 139 139 136 136 128 123 121 122 123 118 115 112 110 114 115 131 144 161 194 239 252 253 250 254 262 275 291 297 303 301 291 288 296 306 314 317
76 73 79 44 41 12 354 345 29 63 70 89 98 106 94 108 132 139 142 145 146 146 137 132 133 135 139 135 131 127 129 164 181 213 263 257 275 272 260 258 259 264 272 280 280 286 292 297 298 299 304 305 311 318
91 82 71 62 63 39 58 78 88 79 66 86 121 117 116 115 121 138 149 152 158 156 152 152 151 151 147 137 143 152 134 145 127 113 103 58 346 302 269 238 161 111 91 60 38 27 17 360 350 337 325 319 318 318
86 72 106 97 82 97 95 69 73 83 86 93 100 111 118 106 93 153 165 164 163 163 176 195 207 209 197 180 172 174 174 165 123 92 66 33 61 96 112 106 91 62 31 9 354 349 343 341 336 330 322 317 317 317
87 88 92 91 91 84 45 70 69 76 65 79 95 115 110 96 134 160 170 175 180 194 215 202 180 169 175 176 163 177 164 166 164 116 42 40 64 79 93 34 354 346 339 335 330 323 321 321 319 317 318 314 309 313